Location: Bassignac
(45.0205°N, 1.8512°E)
Time: 12:37:58
(UTC+00:00)

Daily predictions for brighter satellites

Satellite Brightness Start Highest point End
(mag) Time Altitude Azimuth Time Altitude Azimuth Time Altitude Azimuth
Cosmos 1833 Rocket 3.4 17:20:08 10° N 17:25:11 33° NE 17:30:13 10° ESE
Lacrosse 5 4.0 17:22:53 10° WNW 17:27:20 31° SW 17:31:44 10° S
H-2A R/B 3.1 17:24:16 10° ESE 17:28:07 22° ENE 17:32:03 10° NNE
Meteor 1-21 Rocket 4.2 17:23:12 10° S 17:28:40 66° E 17:34:14 10° NNE
NOSS 2-1 (D) 2.8 17:25:22 10° SW 17:28:43 88° SE 17:32:09 10° NE
Cosmos 1939 Rocket 3.1 17:26:08 10° SSE 17:30:04 50° ENE 17:33:59 10° N
Cosmos 2344 4.4 17:22:24 10° NW 17:31:21 56° NE 17:43:38 10° ESE
H-2A R/B 2.1 17:27:27 10° NNE 17:31:52 88° ESE 17:36:08 10° SSW
Cosmos 44 3.6 17:27:52 10° SW 17:32:40 72° NW 17:37:49 10° NNE
Cosmos 1602 Rocket 3.9 17:28:46 10° SSE 17:32:55 45° E 17:37:08 10° NNE
USA 229 DEB 4.0 17:25:51 10° NW 17:33:04 61° NE 17:40:39 10° SE
USA 229 4.0 17:25:58 10° NNW 17:33:11 61° NE 17:40:46 10° SE
Cosmos 2026 Rocket 4.4 17:28:33 10° SSE 17:34:12 40° E 17:39:58 10° NNE
CZ-3B R/B 2.3 17:31:50 10° NW 17:34:15 41° NE 17:40:32 10° ESE
Feng Yun 1-1 Rocket 4.4 17:30:10 10° SE 17:35:28 52° ENE 17:40:55 10° N
SeaSat 1 3.9 17:31:09 10° NNE 17:35:35 34° NW 17:40:00 10° WSW
SJ 16-02 2.4 17:31:40 10° SW 17:35:53 47° WNW 17:40:09 10° N
Cosmos 2112 Rocket 3.9 17:32:54 10° NNW 17:38:10 78° ENE 17:43:21 10° SSE
FengYun 1-2 T 4.4 17:32:38 10° SSE 17:38:13 85° WSW 17:43:54 10° NNW
Cosmos 990 Rocket 4.0 17:34:06 10° SSW 17:39:18 83° ESE 17:44:31 10° NNE
YAOGAN 1 3.6 17:36:07 10° ESE 17:39:34 24° ENE 17:43:01 10° NNE
Cosmos 1844 Rocket 3.7 17:35:38 10° SW 17:41:04 47° WNW 17:46:32 10° NNE
H-2A R/B 3.7 17:37:27 10° S 17:41:27 48° W 17:45:39 10° NNW
Cosmos 1689 Rocket 3.9 17:41:34 12° ENE 17:42:16 13° E 17:43:42 10° SE
Aureole 3 Rocket 3.3 17:40:20 10° NNE 17:43:22 33° E 17:47:04 10° SE
COSMOS 2406 3.4 17:39:05 10° NNW 17:44:44 51° ENE 17:50:19 10° SE
Cosmos 2082 Rocket 3.1 17:40:02 10° N 17:44:55 28° NE 17:49:44 10° ESE
Cosmos 1844 4.5 17:39:32 10° SW 17:45:05 54° WNW 17:50:44 10° NNE
Cosmos 1703 3.1 17:43:03 10° S 17:46:55 76° E 17:50:48 10° NNE
Cosmos 1825 Rocket 4.5 17:44:22 10° SSE 17:48:04 27° E 17:51:48 10° NNE
NOSS 3-1 (A) 4.1 17:41:20 10° NW 17:48:46 66° NE 17:57:23 10° SE
X-37B 0.6 17:45:35 10° W 17:48:47 80° SSW 17:51:36 13° ESE
IRS-1C Rocket 4.3 17:43:57 10° SE 17:48:58 49° ENE 17:54:02 10° N
ISS -2.2 17:48:39 10° WNW 17:51:34 26° N 17:53:50 14° NE
Cosmos 1812 Rocket 3.5 17:48:16 10° N 17:52:38 67° E 17:56:57 10° SSE
Okean O Rocket 2.6 17:50:30 10° S 17:54:50 52° W 17:59:09 10° NNW
ATLAS 5 CENTAUR R/B 4.2 17:55:57 10° NNW 17:56:51 10° NNW 17:57:46 10° N
CZ-4 R/B 1.8 17:55:20 10° SE 17:59:06 39° ENE 18:02:48 10° N
Iridium 4 Rocket 3.5 17:55:45 10° N 18:01:02 55° E 18:05:49 10° SSE
Cosmos 2195 Rocket 4.5 17:55:25 10° S 18:01:44 77° E 18:08:05 10° N
ERS-2 2.6 17:59:17 10° NNE 18:02:42 38° E 18:06:06 10° S
SKYMED 2 3.5 17:58:23 10° NNE 18:02:45 76° ESE 18:07:05 10° S
CSL-04 Rocket 4.4 17:58:56 10° ESE 18:03:39 31° ENE 18:08:25 10° N
Okean-O 2.9 18:02:23 10° SE 18:06:35 44° ENE 18:10:49 10° N
CZ-4C R/B 4.4 18:03:56 10° NNW 18:07:25 15° N 18:11:14 10° NE
Cosmos 1428 Rocket 4.5 18:03:28 10° S 18:09:44 74° E 18:16:03 10° NNE
Cosmos 1340 3.0 18:06:44 10° SSW 18:10:27 68° WNW 18:14:12 10° N
USA 234 4.3 18:05:52 13° NE 18:10:46 31° N 18:16:21 10° WNW
Cosmos 1346 Rocket 3.0 18:07:14 10° SSE 18:10:59 45° E 18:14:46 10° NNE
Cosmos 2278 Rocket 2.2 18:05:37 10° S 18:11:11 63° ESE 18:16:49 10° NNE
Cosmos 1953 Rocket 4.1 18:10:36 10° SSE 18:14:30 33° E 18:17:58 12° NNE
CZ-2C R/B 3.2 18:09:34 10° SSE 18:15:03 90° E 18:20:50 10° NNW
Cosmos 2292 Rocket 4.2 18:14:53 10° SSE 18:19:13 32° E 18:20:41 25° NE
SAR-Lupe-4 3.7 18:17:50 15° NNE 18:20:40 50° E 18:24:08 10° S
Cosmos 44 Rocket 4.0 18:16:58 10° S 18:21:23 35° ESE 18:23:19 26° ENE
Cosmos 405 3.2 18:19:18 10° NNW 18:22:50 71° W 18:26:19 10° S
ARGOS 3.2 18:23:29 10° SE 18:28:39 51° ENE 18:33:52 10° N
TELKOM 3 4.3 18:27:08 10° NW 18:28:35 28° NNW 18:28:35 28° NNW
Meteor 2-19 Rocket 4.4 18:24:26 10° S 18:30:36 83° E 18:36:47 10° N
Cosmos 1869 4.1 18:27:28 10° N 18:30:11 30° NE 18:30:11 30° NE
PSLV R/B 3.9 18:29:48 10° NNE 18:34:03 82° E 18:38:15 10° SSW
Cosmos 372 Rocket 3.9 18:29:40 10° SSW 18:34:52 82° ESE 18:39:57 11° NNE
SAR-Lupe-1 3.9 18:34:04 17° NNE 18:36:44 82° ESE 18:40:19 10° SSW
CZ-4B R/B 3.3 18:34:38 10° N 18:37:34 30° WNW 18:40:24 10° SW
CZ-2C R/B 3.1 18:33:51 10° NNE 18:39:07 41° E 18:44:24 10° SSE
Cosmos 494 Rocket 4.4 18:37:19 10° N 18:42:06 37° ENE 18:42:29 36° ENE
Cosmos 2150 Rocket 4.1 18:39:11 10° S 18:44:08 50° ESE 18:45:58 34° NE
MOS 1 Rocket 4.1 18:41:22 10° N 18:45:30 47° WNW 18:49:40 10° SW
Cosmos 1048 Rocket 4.0 18:42:08 10° NNW 18:47:12 57° ENE 18:49:36 30° SE
Cosmos-2242 3.5 18:43:16 10° NNW 18:47:31 60° W 18:51:45 10° S
COSMO-SKYMED 1 4.2 18:46:45 10° N 18:50:42 34° WNW 18:54:37 10° SW
Cosmos 2297 4.3 18:46:48 10° S 18:51:23 35° ESE 18:51:23 35° ESE
USA 290 4.1 18:53:00 10° NW 18:55:52 31° WSW 18:58:42 10° S
SL-08 RB Rocket 3.5 18:59:18 50° SE 19:00:20 68° ENE 19:04:49 10° N
CSL-04 Debris 4.1 18:57:06 10° SSE 19:02:29 85° WSW 19:07:55 10° NNW
Helios 1A Rocket 3.5 19:01:19 10° S 19:05:24 58° WSW 19:09:30 10° NNW
H-2A R/B 2.7 19:02:13 10° S 19:07:08 53° W 19:12:15 10° NNW
Cosmos 1125 Rocket 3.4 19:03:39 10° S 19:08:41 61° ESE 19:08:41 61° ESE
Cosmos 1833 Rocket 3.9 19:03:57 10° NW 19:09:13 42° WSW 19:14:28 10° S
Cosmos 1809 Rocket 4.3 19:03:11 10° S 19:09:16 76° E 19:15:26 10° NNE
Cosmos 2298 Rocket 3.9 19:06:05 10° SSW 19:11:25 88° WNW 19:13:35 37° NNE
Cosmos 1689 Rocket 4.3 19:13:25 24° WNW 19:13:25 24° WNW 19:15:41 10° SW
Cosmos 2266 Rocket 3.8 19:07:14 10° S 19:13:26 74° E 19:19:35 10° NNE
YAOGAN 1 4.1 19:11:30 10° SSW 19:15:28 36° W 19:19:29 10° NNW
NOSS 2-2 (C) 4.5 19:14:27 10° NNW 19:19:48 59° NE 19:20:07 58° ENE
In-Cosmos 22 Rocket 4.3 19:17:24 10° SSW 19:23:11 79° W 19:28:54 10° N
X-37B 3.2 19:22:24 10° W 19:23:55 21° WSW 19:23:55 21° WSW
Cosmos 1943 Rocket 4.0 19:22:03 10° S 19:23:18 17° S 19:23:18 17° S
ISS -1.1 19:25:49 10° NW 19:26:49 17° NW 19:26:49 17° NW
Cosmos 2082 Rocket 2.8 19:23:45 10° NW 19:29:20 54° WSW 19:33:42 16° S
CZ-4 R/B 4.2 19:31:30 10° SW 19:34:16 18° W 19:37:01 10° NW
Meteor 2-21 4.5 19:33:00 10° SSW 19:39:04 76° W 19:45:15 10° N
NOSS 2-2 (E) 4.5 19:37:22 10° NW 19:43:05 90° ENE 19:43:31 80° SE
ATLAS 5 CENTAUR R/B 4.5 19:42:28 10° N 19:42:29 10° N 19:42:29 10° N
Cosmos 2315 Rocket 3.9 19:40:37 10° N 19:46:33 81° NNW 19:46:33 81° NNW
ATLAS 2AS CENTAUR R/B 4.3 19:42:47 10° NNW 19:48:21 22° NNE 19:48:21 22° NNE
USA 234 4.0 19:53:13 38° N 19:53:13 38° N 19:58:43 10° NW
Cosmos 2278 Rocket 4.2 19:51:09 10° WSW 19:55:44 25° NW 19:59:05 15° N
CZ-4C R/B 4.2 19:53:08 10° NNW 19:56:58 23° N 19:56:58 23° N
CZ-2C R/B 4.3 20:15:10 14° N 20:19:16 32° WNW 20:24:10 10° SW
ATLAS 5 CENTAUR R/B 4.4 20:20:37 10° SSW 20:39:16 60° SSW 20:39:16 60° SSW
